Location: Veytaux
(46.4185°N, 6.9320°E)
Time: 06:58:17
(UTC+00:00)

ADEOS II - Visible Passes

Search period start: 06 October 2022 00:00
Search period end: 16 October 2022 00:00
Orbit: 798 x 801 km, 98.6° (Epoch: 05 October)

Date Brightness Start Highest point End Pass type
(mag) Time Alt. Az. Time Alt. Az. Time Alt. Az.
06 Oct 3.9 02:13:09 10° N 02:15:16 24° N 02:15:16 24° N visible
07 Oct 4.2 01:46:19 10° NNE 01:48:04 22° NNE 01:48:04 22° NNE visible
07 Oct 4.1 03:27:27 10° NNW 03:28:59 14° NW 03:28:59 14° NW visible
08 Oct 4.6 01:19:40 10° NNE 01:20:52 17° NNE 01:20:52 17° NNE visible
08 Oct 3.9 02:59:56 10° N 03:01:47 18° NNW 03:01:47 18° NNW visible
09 Oct 5.0 00:53:16 10° NE 00:53:41 12° NE 00:53:41 12° NE visible
09 Oct 3.9 02:32:44 10° N 02:34:35 21° N 02:34:35 21° N visible
10 Oct 4.2 02:05:46 10° N 02:07:23 20° N 02:07:23 20° N visible
10 Oct 4.3 03:48:00 10° NW 03:48:18 10° NW 03:48:18 10° NW visible
11 Oct 4.5 01:38:58 10° NNE 01:40:11 17° NNE 01:40:11 17° NNE visible
11 Oct 4.1 03:19:49 10° NNW 03:21:06 14° NNW 03:21:06 14° NNW visible
12 Oct 4.9 01:12:22 10° NNE 01:12:59 13° NNE 01:12:59 13° NNE visible
12 Oct 4.1 02:52:25 10° N 02:53:54 17° NNW 02:53:54 17° NNW visible
13 Oct 4.2 02:25:18 10° N 02:26:42 18° N 02:26:42 18° N visible
14 Oct 4.4 01:58:22 10° NNE 01:59:30 17° N 01:59:30 17° N visible
14 Oct 4.3 03:40:04 10° NNW 03:40:24 11° NNW 03:40:24 11° NNW visible
15 Oct 4.8 01:31:37 10° NNE 01:32:17 14° NNE 01:32:17 14° NNE visible
15 Oct 4.2 03:12:14 10° NNW 03:13:12 14° NNW 03:13:12 14° NNW visible
